TimeAST,TemperatureF,Dew PointF,Humidity,Sea Level PressureIn,VisibilityMPH,Wind Direction,Wind SpeedMPH,Gust SpeedMPH,PrecipitationIn,Events,Conditions,WindDirDegrees,DateUTC
12:00 AM,39.2,30.2,70,30.17,9.0,West,11.5,-,N/A,,Clear,280,2012-12-08 04:00:00
1:00 AM,39.2,30.2,70,30.17,9.0,West,10.4,-,N/A,,Clear,280,2012-12-08 05:00:00
2:00 AM,39,32,66,30.17,9,West,10.4,,,,,270,2012-12-08 06:00:00
2:00 AM,39.2,32.0,75,30.17,9.0,West,10.4,-,N/A,,Partly Cloudy,270,2012-12-08 06:00:00
3:00 AM,39.2,32.0,75,30.17,9.0,West,8.1,-,N/A,,Partly Cloudy,270,2012-12-08 07:00:00
3:32 AM,41.0,33.8,76,30.17,9.0,West,10.4,-,N/A,,Mostly Cloudy,270,2012-12-08 07:32:00
3:53 AM,41.0,32.0,70,30.16,9.0,West,11.5,-,N/A,,Partly Cloudy,270,2012-12-08 07:53:00
4:00 AM,41.0,32.0,70,30.17,9.0,West,9.2,-,N/A,,Partly Cloudy,270,2012-12-08 08:00:00
5:00 AM,42,32,57,30.17,9,West,9.2,,,,,270,2012-12-08 09:00:00
5:00 AM,41.0,32.0,70,30.17,9.0,West,8.1,-,N/A,,Partly Cloudy,280,2012-12-08 09:00:00
6:00 AM,42.8,33.8,70,30.17,9.0,West,10.4,-,N/A,,Partly Cloudy,280,2012-12-08 10:00:00
7:00 AM,42.8,33.8,70,30.18,9.0,West,4.6,-,N/A,,Scattered Clouds,270,2012-12-08 11:00:00
8:00 AM,44,35,59,30.18,9,West,5.8,,,,,260,2012-12-08 12:00:00
8:00 AM,42.8,33.8,70,30.18,9.0,West,5.8,-,N/A,,Mostly Cloudy,260,2012-12-08 12:00:00
9:00 AM,44.6,35.6,71,30.18,9.0,SW,8.1,-,N/A,,Overcast,220,2012-12-08 13:00:00
10:00 AM,46.4,35.6,66,30.18,9.0,SSW,9.2,-,N/A,,Mostly Cloudy,200,2012-12-08 14:00:00
10:48 AM,46.4,37.4,71,30.18,9.0,SSW,8.1,-,N/A,,Overcast,200,2012-12-08 14:48:00
11:00 AM,46,37,61,30.18,9,SSW,9.2,,,,Overcast,200,2012-12-08 15:00:00
11:00 AM,46.4,37.4,71,30.18,9.0,South,9.2,-,N/A,,Overcast,190,2012-12-08 15:00:00
11:31 AM,46.4,37.4,71,30.16,9.0,SSW,8.1,-,N/A,,Mostly Cloudy,200,2012-12-08 15:31:00
12:00 PM,46.4,37.4,71,30.15,9.0,South,8.1,-,N/A,,Overcast,180,2012-12-08 16:00:00
1:00 PM,46.4,39.2,76,30.14,9.0,South,8.1,-,N/A,,Overcast,170,2012-12-08 17:00:00
1:01 PM,46.4,39.2,76,30.14,9.0,South,9.2,-,N/A,,Overcast,170,2012-12-08 17:01:00
2:00 PM,47,42,76,30.12,7,SSE,10.4,,,,Unknown Precipitation,160,2012-12-08 18:00:00
2:00 PM,46.4,41.0,81,30.12,8.0,SSE,10.4,-,N/A,,Overcast,150,2012-12-08 18:00:00
3:00 PM,46.4,42.8,87,30.11,9.0,SE,10.4,-,N/A,,Overcast,140,2012-12-08 19:00:00
3:12 PM,46.4,42.8,87,30.11,9.0,SE,9.2,-,N/A,,Overcast,140,2012-12-08 19:12:00
3:29 PM,46.4,42.8,87,30.10,9.0,SE,9.2,-,N/A,,Overcast,140,2012-12-08 19:29:00
3:50 PM,46.4,42.8,87,30.10,9.0,SE,12.7,-,N/A,,Overcast,140,2012-12-08 19:50:00
4:00 PM,46.4,42.8,87,30.10,9.0,SSE,13.8,-,N/A,,Overcast,150,2012-12-08 20:00:00
4:07 PM,46.4,44.6,93,30.10,5.0,SE,12.7,-,N/A,,Overcast,140,2012-12-08 20:07:00
4:26 PM,46.4,44.6,93,30.09,2.5,SE,12.7,-,N/A,,Overcast,140,2012-12-08 20:26:00
4:30 PM,46.4,44.6,93,30.09,2.2,SE,11.5,-,N/A,Rain,Light Rain,140,2012-12-08 20:30:00
4:37 PM,46.4,44.6,93,30.09,2.2,SE,12.7,-,N/A,Rain,Light Rain,140,2012-12-08 20:37:00
4:42 PM,46.4,44.6,93,30.09,2.5,SE,11.5,-,N/A,,Overcast,140,2012-12-08 20:42:00
4:51 PM,46.4,44.6,93,30.09,2.5,SE,12.7,-,N/A,,Overcast,140,2012-12-08 20:51:00
4:54 PM,48.2,44.6,87,30.09,3.5,SSE,13.8,-,N/A,,Overcast,150,2012-12-08 20:54:00
4:57 PM,48.2,44.6,87,30.09,3.0,SE,13.8,-,N/A,,Light Drizzle,140,2012-12-08 20:57:00
5:00 PM,47,45,92,30.10,3,SE,13.8,,,Rain,Light Drizzle,140,2012-12-08 21:00:00
5:00 PM,48.2,44.6,87,30.10,3.0,SE,12.7,-,N/A,,Light Drizzle,140,2012-12-08 21:00:00
5:01 PM,48.2,44.6,87,30.09,2.4,SE,12.7,-,N/A,,Light Drizzle,140,2012-12-08 21:01:00
5:06 PM,48.2,44.6,87,30.09,1.8,SE,13.8,-,N/A,,Light Drizzle,140,2012-12-08 21:06:00
5:14 PM,48.2,44.6,87,30.09,1.4,SE,11.5,-,N/A,,Light Drizzle,140,2012-12-08 21:14:00
5:27 PM,48.2,46.4,93,30.09,1.4,SE,11.5,-,N/A,,Light Drizzle,140,2012-12-08 21:27:00
5:28 PM,48.2,44.6,87,30.09,1.4,SE,11.5,-,N/A,,Light Drizzle,140,2012-12-08 21:28:00
5:36 PM,48.2,44.6,87,30.09,1.5,SE,11.5,-,N/A,,Light Drizzle,140,2012-12-08 21:36:00
5:42 PM,48.2,44.6,87,30.09,1.6,SE,10.4,-,N/A,Rain,Light Rain,140,2012-12-08 21:42:00
6:00 PM,48.2,46.4,93,30.09,2.0,SSE,13.8,-,N/A,Rain,Light Rain,150,2012-12-08 22:00:00
7:00 PM,48.2,46.4,93,30.08,2.5,SSE,13.8,-,N/A,Rain,Light Rain,160,2012-12-08 23:00:00
7:07 PM,48.2,46.4,93,30.07,2.5,SSE,12.7,-,N/A,Rain,Light Rain,160,2012-12-08 23:07:00
7:20 PM,48.2,46.4,93,30.07,2.5,SSE,12.7,-,N/A,Rain,Light Rain,160,2012-12-08 23:20:00
7:21 PM,48.2,46.4,93,30.07,2.5,SSE,12.7,-,N/A,Rain,Light Rain,160,2012-12-08 23:21:00
7:34 PM,48.2,48.2,100,30.07,2.5,SSE,12.7,-,N/A,Rain,Light Rain,160,2012-12-08 23:34:00
7:39 PM,48.2,48.2,100,30.07,2.5,South,12.7,-,N/A,Rain,Light Rain,170,2012-12-08 23:39:00
8:00 PM,49,48,95,30.06,2,South,12.7,,,,Unknown Precipitation,180,2012-12-09 00:00:00
8:00 PM,50.0,48.2,94,30.06,2.4,South,11.5,17.3,N/A,Rain,Light Rain,180,2012-12-09 00:00:00
9:00 PM,50.0,48.2,94,30.06,2.1,South,12.7,-,N/A,Rain,Light Rain,180,2012-12-09 01:00:00
9:47 PM,50.0,50.0,100,30.04,2.1,South,12.7,-,N/A,Rain,Light Rain,180,2012-12-09 01:47:00
10:00 PM,50.0,50.0,100,30.04,1.5,South,12.7,-,N/A,Rain,Light Rain,180,2012-12-09 02:00:00
10:01 PM,50.0,50.0,100,30.03,1.4,South,12.7,-,N/A,Rain,Light Rain,180,2012-12-09 02:01:00
10:06 PM,51.8,50.0,94,30.03,1.0,South,12.7,-,N/A,Rain,Light Rain,180,2012-12-09 02:06:00
10:37 PM,51.8,50.0,94,30.02,1.0,South,15.0,-,N/A,Rain,Rain,180,2012-12-09 02:37:00
10:45 PM,50.0,50.0,100,30.02,1.1,South,15.0,-,N/A,Rain,Rain,180,2012-12-09 02:45:00
11:00 PM,51,49,92,30.02,2,South,16.1,,,Rain,Light Rain,180,2012-12-09 03:00:00
11:00 PM,50.0,50.0,100,30.02,2.0,South,16.1,-,N/A,Rain,Light Rain,180,2012-12-09 03:00:00
11:05 PM,50.0,50.0,100,30.01,1.4,South,13.8,20.7,N/A,Rain,Light Rain,180,2012-12-09 03:05:00
11:10 PM,50.0,50.0,100,30.01,1.4,South,16.1,-,N/A,Rain,Light Rain,170,2012-12-09 03:10:00
11:19 PM,50.0,50.0,100,30.01,2.4,South,15.0,-,N/A,Rain,Light Rain,180,2012-12-09 03:19:00
11:32 PM,50.0,50.0,100,30.00,2.5,South,15.0,-,N/A,,Overcast,180,2012-12-09 03:32:00
11:33 PM,51.8,50.0,94,30.00,4.0,South,16.1,-,N/A,,Overcast,180,2012-12-09 03:33:00
11:47 PM,51.8,50.0,94,30.00,3.0,South,17.3,-,N/A,Rain,Light Rain,190,2012-12-09 03:47:00
11:54 PM,51.8,50.0,94,30.00,2.0,South,17.3,-,N/A,Rain,Light Rain,190,2012-12-09 03:54:00